GMERC EGTD-EGKH

Flight info

Callsign GMERC
Flight time 0h 32m
Altitude 2000
Route VFR EAST / TRANSIT EGKK/ TUNBRIDGE WELLS VRP
Aircraft PA24/L-SDGRY/G

Departure

Time 2026-05-04 11:27
Airport Dunsfold Aerodrome (EGTD)

Arrival

Time 2026-05-04 12:00
Airport Headcorn Aerodrome (EGKH)
Time Latitude Longitude Altitude Speed Heading
2026-05-04 11:16 51.12019 -0.52676 171 ft 0 kts 157°
2026-05-04 11:24 51.12016 -0.52674 171 ft 2 kts 158°
2026-05-04 11:25 51.11970 -0.52745 172 ft 18 kts 238°
2026-05-04 11:25 51.11911 -0.52908 172 ft 16 kts 247°
2026-05-04 11:25 51.11861 -0.53095 172 ft 19 kts 247°
2026-05-04 11:26 51.11761 -0.53459 173 ft 30 kts 248°
2026-05-04 11:27 51.12779 -0.50294 992 ft 111 kts 60°
2026-05-04 11:28 51.13174 -0.49138 978 ft 126 kts 59°
2026-05-04 11:28 51.13887 -0.48271 915 ft 136 kts 13°
2026-05-04 11:28 51.14802 -0.48557 928 ft 140 kts 328°
2026-05-04 11:28 51.15336 -0.49822 931 ft 143 kts 283°
2026-05-04 11:29 51.15155 -0.51365 936 ft 146 kts 239°
2026-05-04 11:29 51.14351 -0.52309 930 ft 148 kts 194°
2026-05-04 11:29 51.13349 -0.52133 944 ft 148 kts 152°
2026-05-04 11:29 51.12692 -0.50932 940 ft 149 kts 109°
2026-05-04 11:31 51.13346 -0.52457 930 ft 149 kts 157°
2026-05-04 11:33 51.10744 -0.43580 935 ft 111 kts 123°
2026-05-04 11:33 51.10304 -0.42584 933 ft 110 kts 120°
2026-05-04 11:33 51.09894 -0.41560 932 ft 110 kts 120°
2026-05-04 11:34 51.09479 -0.40533 930 ft 110 kts 121°
2026-05-04 11:34 51.09052 -0.39525 929 ft 109 kts 122°
2026-05-04 11:34 51.08713 -0.38461 934 ft 108 kts 104°
2026-05-04 11:34 51.08565 -0.37285 932 ft 108 kts 99°
2026-05-04 11:35 51.08417 -0.36121 931 ft 107 kts 99°
2026-05-04 11:35 51.08298 -0.34948 934 ft 107 kts 92°
2026-05-04 11:35 51.08249 -0.33767 933 ft 107 kts 91°
2026-05-04 11:35 51.08221 -0.32577 933 ft 108 kts 91°
2026-05-04 11:36 51.08181 -0.31389 933 ft 108 kts 90°
2026-05-04 11:36 51.08138 -0.30190 935 ft 109 kts 91°
2026-05-04 11:36 51.08099 -0.29031 1011 ft 104 kts 90°
2026-05-04 11:36 51.08070 -0.27872 1056 ft 104 kts 91°
2026-05-04 11:37 51.08032 -0.26760 1196 ft 100 kts 91°
2026-05-04 11:37 51.08010 -0.25601 1197 ft 110 kts 91°
2026-05-04 11:37 51.07985 -0.24363 1225 ft 113 kts 91°
2026-05-04 11:37 51.07994 -0.23088 1228 ft 117 kts 83°
2026-05-04 11:38 51.08095 -0.21784 1219 ft 121 kts 82°
2026-05-04 11:38 51.08197 -0.20445 1215 ft 123 kts 82°
2026-05-04 11:38 51.08303 -0.19076 1224 ft 125 kts 82°
2026-05-04 11:38 51.08418 -0.17707 1280 ft 121 kts 81°
2026-05-04 11:39 51.08530 -0.16417 1369 ft 117 kts 81°
2026-05-04 11:39 51.08641 -0.15111 1353 ft 120 kts 82°
2026-05-04 11:40 51.09269 -0.07034 1344 ft 123 kts 82°
2026-05-04 11:41 51.09381 -0.05690 1345 ft 122 kts 82°
2026-05-04 11:41 51.09499 -0.04351 1341 ft 122 kts 81°
2026-05-04 11:41 51.09608 -0.03008 1343 ft 123 kts 83°
2026-05-04 11:41 51.09713 -0.01657 1343 ft 123 kts 81°
2026-05-04 11:42 51.09817 -0.00299 1341 ft 124 kts 82°
2026-05-04 11:42 51.09907 0.00960 1343 ft 123 kts 83°
2026-05-04 11:42 51.10012 0.02325 1342 ft 125 kts 82°
2026-05-04 11:42 51.10114 0.03701 1341 ft 125 kts 83°
2026-05-04 11:43 51.10220 0.05079 1344 ft 125 kts 83°
2026-05-04 11:43 51.10332 0.06441 1339 ft 124 kts 82°
2026-05-04 11:43 51.10437 0.07801 1340 ft 123 kts 82°
2026-05-04 11:43 51.10536 0.09137 1340 ft 124 kts 83°
2026-05-04 11:44 51.10639 0.10493 1339 ft 123 kts 82°
2026-05-04 11:44 51.10738 0.11851 1342 ft 123 kts 82°
2026-05-04 11:44 51.10846 0.13210 1307 ft 124 kts 82°
2026-05-04 11:44 51.10949 0.14577 1305 ft 125 kts 82°
2026-05-04 11:45 51.11061 0.15951 1306 ft 126 kts 82°
2026-05-04 11:45 51.11161 0.17329 1306 ft 125 kts 82°
2026-05-04 11:45 51.11273 0.18700 1301 ft 124 kts 82°
2026-05-04 11:45 51.11378 0.20063 1302 ft 125 kts 81°
2026-05-04 11:46 51.11494 0.21430 1296 ft 123 kts 82°
2026-05-04 11:46 51.11592 0.22763 1296 ft 123 kts 81°
2026-05-04 11:46 51.11695 0.24127 1296 ft 125 kts 83°
2026-05-04 11:46 51.11784 0.25511 1298 ft 126 kts 82°
2026-05-04 11:47 51.11878 0.26899 1296 ft 126 kts 83°
2026-05-04 11:47 51.11974 0.28279 1295 ft 125 kts 81°
2026-05-04 11:47 51.12085 0.29652 1293 ft 125 kts 81°
2026-05-04 11:47 51.12184 0.31041 1294 ft 126 kts 82°
2026-05-04 11:48 51.12278 0.32418 1293 ft 125 kts 83°
2026-05-04 11:48 51.12385 0.33780 1290 ft 123 kts 82°
2026-05-04 11:48 51.12491 0.35122 1288 ft 123 kts 82°
2026-05-04 11:48 51.12581 0.36473 1289 ft 123 kts 81°
2026-05-04 11:49 51.12690 0.37824 1287 ft 123 kts 82°
2026-05-04 11:49 51.12793 0.39174 1288 ft 122 kts 82°
2026-05-04 11:49 51.12887 0.40525 1289 ft 124 kts 82°
2026-05-04 11:49 51.12982 0.41881 1289 ft 125 kts 83°
2026-05-04 11:50 51.13073 0.43249 1289 ft 124 kts 83°
2026-05-04 11:50 51.13161 0.44610 1289 ft 123 kts 81°
2026-05-04 11:50 51.13253 0.45968 1290 ft 123 kts 82°
2026-05-04 11:50 51.13353 0.47337 1290 ft 125 kts 82°
2026-05-04 11:51 51.13438 0.48712 1291 ft 125 kts 82°
2026-05-04 11:51 51.13536 0.50073 1289 ft 123 kts 83°
2026-05-04 11:51 51.13629 0.51423 1289 ft 123 kts 82°
2026-05-04 11:51 51.13722 0.52781 1287 ft 122 kts 82°
2026-05-04 11:52 51.13824 0.54124 1292 ft 123 kts 81°
2026-05-04 11:52 51.13914 0.55473 1289 ft 123 kts 84°
2026-05-04 11:52 51.13918 0.56350 1281 ft 115 kts 91°
2026-05-04 11:52 51.13797 0.57560 1254 ft 106 kts 97°
2026-05-04 11:53 51.13683 0.58670 1261 ft 97 kts 96°
2026-05-04 11:53 51.13577 0.59692 1265 ft 92 kts 96°
2026-05-04 11:53 51.13480 0.60713 1145 ft 97 kts 96°
2026-05-04 11:53 51.13365 0.61796 1024 ft 101 kts 98°
2026-05-04 11:55 51.14499 0.67470 813 ft 86 kts 12°
2026-05-04 11:55 51.15072 0.67585 815 ft 81 kts
2026-05-04 11:56 51.15616 0.67651 846 ft 76 kts
2026-05-04 11:56 51.16139 0.67694 842 ft 76 kts
2026-05-04 11:56 51.16656 0.67793 874 ft 73 kts
2026-05-04 11:56 51.17013 0.67298 827 ft 83 kts 282°
2026-05-04 11:57 51.17063 0.66399 889 ft 79 kts 277°
2026-05-04 11:57 51.17088 0.65518 906 ft 79 kts 277°
2026-05-04 11:57 51.17139 0.64644 894 ft 80 kts 280°
2026-05-04 11:57 51.17205 0.63757 901 ft 80 kts 283°
2026-05-04 11:58 51.17279 0.62876 896 ft 81 kts 282°
2026-05-04 11:58 51.17371 0.62036 954 ft 71 kts 283°
2026-05-04 11:58 51.17438 0.61269 946 ft 74 kts 279°
2026-05-04 11:58 51.17314 0.60525 911 ft 74 kts 211°
2026-05-04 11:59 51.16786 0.60412 808 ft 85 kts 185°
2026-05-04 11:59 51.16255 0.60623 726 ft 78 kts 128°
2026-05-04 11:59 51.16070 0.61418 508 ft 75 kts 99°
2026-05-04 11:59 51.15988 0.62203 363 ft 73 kts 98°
2026-05-04 12:00 51.15882 0.63009 197 ft 71 kts 103°
2026-05-04 12:00 51.15766 0.63715 77 ft 62 kts 100°
2026-05-04 12:00 51.15677 0.64290 67 ft 37 kts 107°
2026-05-04 12:00 51.15629 0.64550 66 ft 14 kts 108°
2026-05-04 12:01 51.15578 0.64615 71 ft 10 kts 160°
2026-05-04 12:01 51.15523 0.64638 62 ft 4 kts 119°
2026-05-04 12:02 51.15521 0.64645 64 ft 0 kts 113°